| time (UTC) | temp C | wind direction | speed KPH | gust KPH | rain 1hr cm | rain 24hr cm | rain mn cm | humidity % | barometer mb |
| 20260906195518 | 32 | 89 | 4.8 | 9.7 | 0.00 | 0.00 | 0.00 | 47 | 1015.6 |
| 20260906195040 | 32 | 74 | 3.2 | 12.9 | 0.00 | 0.00 | 0.00 | 48 | 1015.7 |
| 20260906195034 | 32 | 89 | 4.8 | 12.9 | 0.00 | 0.00 | 0.00 | 46 | 1015.9 |
| 20260906194025 | 33 | 94 | 3.2 | 11.3 | 0.00 | 0.00 | 0.00 | 47 | 1015.9 |
| 20260906193541 | 33 | 67 | 3.2 | 11.3 | 0.00 | 0.00 | 0.00 | 45 | 1016.1 |
| 20260906193133 | 33 | 91 | 3.2 | 12.9 | 0.00 | 0.00 | 0.00 | 45 | 1016.3 |
| 20260906192528 | 33 | 123 | 1.6 | 12.9 | 0.00 | 0.00 | 0.00 | 43 | 1016.3 |
| 20260906192034 | 33 | 105 | 4.8 | 9.7 | 0.00 | 0.00 | 0.00 | 44 | 1016.4 |
| 20260906191753 | 33 | 86 | 3.2 | 8.0 | 0.00 | 0.00 | 0.00 | 44 | 1016.6 |
| 20260906191029 | 33 | 91 | 3.2 | 9.7 | 0.00 | 0.00 | 0.00 | 45 | 1016.7 |
| 20260906190544 | 33 | 105 | 4.8 | 14.5 | 0.00 | 0.00 | 0.00 | 45 | 1016.8 |
| 20260906190228 | 33 | 69 | 3.2 | 14.5 | 0.00 | 0.00 | 0.00 | 45 | 1016.8 |
| 20260906185613 | 33 | 44 | 1.6 | 12.9 | 0.00 | 0.00 | 0.00 | 44 | 1016.9 |
| 20260906185028 | 33 | 140 | 4.8 | 12.9 | 0.00 | 0.00 | 0.00 | 44 | 1017.1 |
| 20260906184720 | 33 | 39 | 3.2 | 9.7 | 0.00 | 0.00 | 0.00 | 44 | 1017.1 |
| 20260906184118 | 33 | 45 | 3.2 | 9.7 | 0.00 | 0.00 | 0.00 | 44 | 1017.1 |
| 20260906183534 | 33 | 69 | 3.2 | 12.9 | 0.00 | 0.00 | 0.00 | 45 | 1017.3 |
| 20260906183216 | 33 | 19 | 3.2 | 14.5 | 0.00 | 0.00 | 0.00 | 44 | 1017.4 |
| 20260906182626 | 33 | 38 | 6.4 | 17.7 | 0.00 | 0.00 | 0.00 | 44 | 1017.5 |
| 20260906182025 | 33 | 44 | 4.8 | 17.7 | 0.00 | 0.00 | 0.00 | 45 | 1017.6 |
| 20260906181801 | 33 | 30 | 4.8 | 12.9 | 0.00 | 0.00 | 0.00 | 45 | 1017.9 |
| 20260906181027 | 33 | 317 | 4.8 | 16.1 | 0.00 | 0.00 | 0.00 | 45 | 1017.9 |
| 20260906180532 | 33 | 37 | 6.4 | 16.1 | 0.00 | 0.00 | 0.00 | 47 | 1018.1 |
| 20260906180256 | 32 | 31 | 6.4 | 14.5 | 0.00 | 0.00 | 0.00 | 47 | 1018.0 |
| 20260906175518 | 32 | 341 | 4.8 | 14.5 | 0.00 | 0.00 | 0.00 | 47 | 1018.0 |
| 20260906175044 | 32 | 346 | 4.8 | 12.9 | 0.00 | 0.00 | 0.00 | 48 | 1018.1 |
| 20260906174749 | 32 | 85 | 6.4 | 12.9 | 0.00 | 0.00 | 0.00 | 47 | 1018.1 |
| 20260906174020 | 32 | 29 | 4.8 | 9.7 | 0.00 | 0.00 | 0.00 | 47 | 1018.2 |
| 20260906173523 | 32 | 35 | 1.6 | 12.9 | 0.00 | 0.00 | 0.00 | 48 | 1018.3 |
| 20260906173245 | 32 | 78 | 4.8 | 12.9 | 0.00 | 0.00 | 0.00 | 48 | 1018.2 |
| 20260906172525 | 32 | 17 | 3.2 | 14.5 | 0.00 | 0.00 | 0.00 | 48 | 1018.5 |
| 20260906172033 | 32 | 5 | 6.4 | 14.5 | 0.00 | 0.00 | 0.00 | 48 | 1018.6 |
| 20260906171642 | 32 | 360 | 6.4 | 12.9 | 0.00 | 0.00 | 0.00 | 48 | 1018.6 |
| 20260906171057 | 32 | 50 | 6.4 | 14.5 | 0.00 | 0.00 | 0.00 | 49 | 1018.6 |
| 20260906170521 | 32 | 33 | 3.2 | 11.3 | 0.00 | 0.00 | 0.00 | 49 | 1018.7 |
| 20260906170222 | 32 | 36 | 6.4 | 14.5 | 0.00 | 0.00 | 0.00 | 49 | 1018.7 |
| 20260906165616 | 32 | 355 | 6.4 | 14.5 | 0.00 | 0.00 | 0.00 | 49 | 1018.8 |
| 20260906165025 | 32 | 13 | 6.4 | 12.9 | 0.00 | 0.00 | 0.00 | 49 | 1019.1 |
| 20260906164756 | 32 | 15 | 6.4 | 16.1 | 0.00 | 0.00 | 0.00 | 50 | 1019.0 |
| 20260906164024 | 32 | 33 | 3.2 | 12.9 | 0.00 | 0.00 | 0.00 | 49 | 1019.2 |
| 20260906163536 | 31 | 86 | 4.8 | 12.9 | 0.00 | 0.00 | 0.00 | 50 | 1019.1 |
| 20260906163218 | 31 | 59 | 6.4 | 14.5 | 0.00 | 0.00 | 0.00 | 51 | 1019.2 |
| 20260906162536 | 31 | 40 | 6.4 | 14.5 | 0.00 | 0.00 | 0.00 | 52 | 1019.4 |
| 20260906162039 | 31 | 34 | 6.4 | 14.5 | 0.00 | 0.00 | 0.00 | 52 | 1019.4 |
| 20260906161815 | 31 | 348 | 4.8 | 16.1 | 0.00 | 0.00 | 0.00 | 53 | 1019.2 |
| 20260906161025 | 30 | 319 | 3.2 | 12.9 | 0.00 | 0.00 | 0.00 | 53 | 1019.3 |
| 20260906160539 | 30 | 325 | 4.8 | 14.5 | 0.00 | 0.00 | 0.00 | 54 | 1019.1 |
| 20260906160251 | 30 | 26 | 8.0 | 14.5 | 0.00 | 0.00 | 0.00 | 55 | 1019.1 |
| 20260906155518 | 29 | 347 | 6.4 | 16.1 | 0.00 | 0.00 | 0.00 | 58 | 1019.2 |
| 20260906155040 | 29 | 12 | 6.4 | 17.7 | 0.00 | 0.00 | 0.00 | 59 | 1019.0 |
| 20260906154615 | 28 | 286 | 9.7 | 17.7 | 0.00 | 0.00 | 0.00 | 60 | 1018.8 |
| 20260906154122 | 28 | 350 | 8.0 | 19.3 | 0.00 | 0.00 | 0.00 | 61 | 1018.8 |
| 20260906153524 | 28 | 355 | 8.0 | 19.3 | 0.00 | 0.00 | 0.00 | 62 | 1018.9 |
| 20260906153145 | 28 | 344 | 11.3 | 16.1 | 0.00 | 0.00 | 0.00 | 61 | 1018.9 |
| 20260906152641 | 28 | 350 | 9.7 | 17.7 | 0.00 | 0.00 | 0.00 | 61 | 1018.8 |
| 20260906152039 | 28 | 340 | 14.5 | 17.7 | 0.00 | 0.00 | 0.00 | 59 | 1018.8 |
| 20260906151731 | 28 | 24 | 8.0 | 17.7 | 0.00 | 0.00 | 0.00 | 58 | 1018.8 |
| 20260906151023 | 28 | 12 | 11.3 | 17.7 | 0.00 | 0.00 | 0.00 | 58 | 1018.8 |
| 20260906150523 | 28 | 317 | 12.9 | 17.7 | 0.00 | 0.00 | 0.00 | 59 | 1019.0 |
| 20260906150320 | 27 | 328 | 9.7 | 17.7 | 0.00 | 0.00 | 0.00 | 60 | 1018.8 |
| 20260906145524 | 27 | 344 | 8.0 | 16.1 | 0.00 | 0.00 | 0.00 | 62 | 1018.7 |
| 20260906145043 | 27 | 360 | 9.7 | 16.1 | 0.00 | 0.00 | 0.00 | 64 | 1018.8 |
| 20260906144649 | 27 | 319 | 9.7 | 16.1 | 0.00 | 0.00 | 0.00 | 65 | 1018.7 |
| 20260906144056 | 26 | 330 | 4.8 | 19.3 | 0.00 | 0.00 | 0.00 | 64 | 1018.8 |
| 20260906143521 | 27 | 323 | 12.9 | 22.5 | 0.00 | 0.00 | 0.00 | 64 | 1018.8 |
| 20260906143236 | 27 | 318 | 9.7 | 17.7 | 0.00 | 0.00 | 0.00 | 66 | 1018.8 |
| 20260906142527 | 27 | 288 | 1.6 | 4.8 | 0.00 | 0.00 | 0.00 | 65 | 1018.4 |
| 20260906142028 | 27 | 250 | 1.6 | 4.8 | 0.00 | 0.00 | 0.00 | 66 | 1018.4 |
| 20260906141752 | 26 | 250 | 0.0 | 3.2 | 0.00 | 0.00 | 0.00 | 68 | 1018.2 |
| 20260906141019 | 26 | 250 | 0.0 | 3.2 | 0.00 | 0.00 | 0.00 | 69 | 1018.2 |
| 20260906140544 | 26 | 250 | 0.0 | 3.2 | 0.00 | 0.00 | 0.00 | 71 | 1018.0 |
| 20260906140147 | 25 | 202 | 0.0 | 3.2 | 0.00 | 0.00 | 0.00 | 73 | 1018.2 |
| 20260906135551 | 25 | 84 | 1.6 | 3.2 | 0.00 | 0.00 | 0.00 | 76 | 1018.0 |
| 20260906135025 | 24 | 84 | 0.0 | 3.2 | 0.00 | 0.00 | 0.00 | 77 | 1017.8 |
| 20260906134748 | 23 | 84 | 0.0 | 3.2 | 0.00 | 0.00 | 0.00 | 77 | 1017.9 |
| 20260906134034 | 23 | 84 | 0.0 | 3.2 | 0.00 | 0.00 | 0.00 | 78 | 1017.8 |
| 20260906133535 | 23 | 84 | 1.6 | 3.2 | 0.00 | 0.00 | 0.00 | 78 | 1017.7 |
| 20260906133119 | 23 | 84 | 0.0 | 1.6 | 0.00 | 0.00 | 0.00 | 78 | 1017.7 |
| 20260906132531 | 23 | 84 | 0.0 | 1.6 | 0.00 | 0.00 | 0.00 | 78 | 1017.6 |
| 20260906132024 | 22 | 84 | 1.6 | 1.6 | 0.00 | 0.00 | 0.00 | 78 | 1017.5 |
| 20260906131915 | 22 | 84 | 0.0 | 0.0 | 0.00 | 0.00 | 0.00 | 78 | 1017.5 |
| 20260906060541 | 21 | 117 | 1.6 | 4.8 | 0.00 | 0.00 | 0.00 | 87 | 1015.2 |
| 20260906060218 | 21 | 86 | 1.6 | 3.2 | 0.00 | 0.00 | 0.00 | 87 | 1015.2 |
| 20260906055557 | 21 | 92 | 0.0 | 3.2 | 0.00 | 0.00 | 0.00 | 87 | 1015.3 |
| 20260906055023 | 21 | 103 | 1.6 | 3.2 | 0.00 | 0.00 | 0.00 | 87 | 1015.2 |
| 20260906054717 | 21 | 99 | 1.6 | 3.2 | 0.00 | 0.00 | 0.00 | 87 | 1015.2 |
| 20260906054021 | 21 | 109 | 1.6 | 3.2 | 0.00 | 0.00 | 0.00 | 87 | 1015.1 |
| 20260906053544 | 21 | 104 | 0.0 | 1.6 | 0.00 | 0.00 | 0.00 | 87 | 1015.2 |
| 20260906053126 | 21 | 104 | 0.0 | 4.8 | 0.00 | 0.00 | 0.00 | 87 | 1015.2 |
| 20260906052635 | 21 | 104 | 1.6 | 4.8 | 0.00 | 0.00 | 0.00 | 87 | 1015.3 |
| 20260906052017 | 21 | 78 | 1.6 | 3.2 | 0.00 | 0.00 | 0.00 | 87 | 1015.3 |
| 20260906051652 | 21 | 261 | 0.0 | 3.2 | 0.00 | 0.00 | 0.00 | 87 | 1015.4 |
| 20260906051144 | 21 | 261 | 0.0 | 3.2 | 0.00 | 0.00 | 0.00 | 87 | 1015.4 |
| 20260906050523 | 21 | 261 | 0.0 | 3.2 | 0.00 | 0.00 | 0.00 | 87 | 1015.3 |
| 20260906050320 | 21 | 277 | 0.0 | 1.6 | 0.00 | 0.00 | 0.00 | 87 | 1015.3 |
| 20260906045525 | 21 | 277 | 0.0 | 0.0 | 0.00 | 0.00 | 0.00 | 87 | 1015.4 |
| 20260906045038 | 21 | 277 | 0.0 | 0.0 | 0.00 | 0.00 | 0.00 | 87 | 1015.3 |
| 20260906044717 | 21 | 277 | 0.0 | 0.0 | 0.00 | 0.00 | 0.00 | 87 | 1015.4 |
| 20260906044058 | 21 | 277 | 0.0 | 0.0 | 0.00 | 0.00 | 0.00 | 87 | 1015.5 |
| 20260906043531 | 22 | 277 | 0.0 | 0.0 | 0.00 | 0.00 | 0.00 | 86 | 1015.5 |
| 20260906043124 | 22 | 277 | 0.0 | 0.0 | 0.00 | 0.00 | 0.00 | 86 | 1015.4 |
| 20260906042627 | 22 | 277 | 0.0 | 0.0 | 0.00 | 0.00 | 0.00 | 86 | 1015.5 |
| 20260906042024 | 22 | 277 | 0.0 | 0.0 | 0.00 | 0.00 | 0.00 | 86 | 1015.5 |
| 20260906041631 | 22 | 276 | 0.0 | 0.0 | 0.00 | 0.00 | 0.00 | 86 | 1015.5 |
| 20260906041038 | 22 | 276 | 0.0 | 0.0 | 0.00 | 0.00 | 0.00 | 85 | 1015.4 |
| 20260906040524 | 22 | 276 | 0.0 | 1.6 | 0.00 | 0.00 | 0.00 | 85 | 1015.4 |
| 20260906040219 | 22 | 276 | 0.0 | 3.2 | 0.00 | 0.00 | 0.00 | 85 | 1015.5 |
| 20260906035602 | 22 | 276 | 1.6 | 3.2 | 0.00 | 0.00 | 0.00 | 85 | 1015.5 |
| 20260906035027 | 22 | 274 | 0.0 | 1.6 | 0.00 | 0.00 | 0.00 | 85 | 1015.4 |
| 20260906034717 | 22 | 274 | 0.0 | 0.0 | 0.00 | 0.00 | 0.00 | 85 | 1015.3 |
| 20260906034034 | 22 | 274 | 0.0 | 0.0 | 0.00 | 0.00 | 0.00 | 85 | 1015.2 |
| 20260906033521 | 22 | 274 | 0.0 | 1.6 | 0.00 | 0.00 | 0.00 | 85 | 1015.3 |
| 20260906033242 | 22 | 274 | 0.0 | 3.2 | 0.00 | 0.00 | 0.00 | 84 | 1015.1 |
| 20260906032524 | 22 | 274 | 0.0 | 3.2 | 0.00 | 0.00 | 0.00 | 84 | 1015.2 |
| 20260906032035 | 22 | 274 | 0.0 | 3.2 | 0.00 | 0.00 | 0.00 | 84 | 1015.2 |
| 20260906031649 | 23 | 238 | 0.0 | 3.2 | 0.00 | 0.00 | 0.00 | 84 | 1015.1 |
| 20260906031037 | 23 | 238 | 1.6 | 3.2 | 0.00 | 0.00 | 0.00 | 84 | 1015.1 |
| 20260906030545 | 23 | 238 | 0.0 | 0.0 | 0.00 | 0.00 | 0.00 | 83 | 1015.2 |
| 20260906030218 | 23 | 238 | 0.0 | 0.0 | 0.00 | 0.00 | 0.00 | 83 | 1015.2 |
| 20260906025630 | 23 | 238 | 0.0 | 0.0 | 0.00 | 0.00 | 0.00 | 82 | 1015.1 |
| 20260906025026 | 23 | 238 | 0.0 | 1.6 | 0.00 | 0.00 | 0.00 | 82 | 1015.0 |
| 20260906024644 | 23 | 238 | 0.0 | 1.6 | 0.00 | 0.00 | 0.00 | 82 | 1015.0 |
| 20260906024023 | 23 | 238 | 0.0 | 3.2 | 0.00 | 0.00 | 0.00 | 82 | 1015.0 |
| 20260906023538 | 23 | 238 | 0.0 | 3.2 | 0.00 | 0.00 | 0.00 | 82 | 1014.8 |
| 20260906023108 | 23 | 190 | 0.0 | 4.8 | 0.00 | 0.00 | 0.00 | 82 | 1014.6 |
| 20260906022528 | 23 | 190 | 0.0 | 4.8 | 0.00 | 0.00 | 0.00 | 82 | 1014.7 |
| 20260906022040 | 23 | 190 | 1.6 | 6.4 | 0.00 | 0.00 | 0.00 | 82 | 1014.6 |
| 20260906021622 | 23 | 222 | 1.6 | 9.7 | 0.00 | 0.00 | 0.00 | 82 | 1014.7 |
| 20260906021126 | 23 | 252 | 1.6 | 4.8 | 0.00 | 0.00 | 0.00 | 83 | 1014.7 |
| 20260906020520 | 23 | 148 | 0.0 | 0.0 | 0.00 | 0.00 | 0.00 | 82 | 1014.3 |
| 20260906020249 | 23 | 148 | 0.0 | 0.0 | 0.00 | 0.00 | 0.00 | 82 | 1014.4 |
| 20260906015530 | 23 | 148 | 0.0 | 4.8 | 0.00 | 0.00 | 0.00 | 81 | 1014.3 |
| 20260906015042 | 23 | 148 | 0.0 | 4.8 | 0.00 | 0.00 | 0.00 | 81 | 1014.3 |
| 20260906014800 | 24 | 149 | 0.0 | 3.2 | 0.00 | 0.00 | 0.00 | 81 | 1014.2 |
| 20260906014036 | 24 | 148 | 1.6 | 4.8 | 0.00 | 0.00 | 0.00 | 81 | 1014.2 |
| 20260906013529 | 24 | 149 | 0.0 | 3.2 | 0.00 | 0.00 | 0.00 | 80 | 1014.3 |
| 20260906013218 | 25 | 28 | 0.0 | 0.0 | 0.00 | 0.00 | 0.00 | 79 | 1014.2 |
| 20260906012611 | 25 | 28 | 0.0 | 0.0 | 0.00 | 0.00 | 0.00 | 79 | 1014.3 |
| 20260906012024 | 25 | 28 | 0.0 | 0.0 | 0.00 | 0.00 | 0.00 | 79 | 1014.4 |
| 20260906011731 | 25 | 28 | 0.0 | 3.2 | 0.00 | 0.00 | 0.00 | 78 | 1014.4 |
| 20260906011140 | 25 | 28 | 0.0 | 4.8 | 0.00 | 0.00 | 0.00 | 77 | 1014.3 |
| 20260906010523 | 25 | 28 | 1.6 | 4.8 | 0.00 | 0.00 | 0.00 | 77 | 1014.4 |
| 20260906010144 | 25 | 47 | 0.0 | 6.4 | 0.00 | 0.00 | 0.00 | 77 | 1014.2 |
| 20260906005532 | 25 | 34 | 1.6 | 6.4 | 0.00 | 0.00 | 0.00 | 76 | 1014.1 |
| 20260906005041 | 25 | 47 | 1.6 | 4.8 | 0.00 | 0.00 | 0.00 | 77 | 1013.9 |
| 20260906004742 | 25 | 298 | 1.6 | 4.8 | 0.00 | 0.00 | 0.00 | 76 | 1013.8 |
| 20260906004027 | 25 | 281 | 1.6 | 8.0 | 0.00 | 0.00 | 0.00 | 78 | 1013.8 |
| 20260906003524 | 25 | 13 | 1.6 | 8.0 | 0.00 | 0.00 | 0.00 | 78 | 1014.0 |
| 20260906003141 | 25 | 300 | 0.0 | 4.8 | 0.00 | 0.00 | 0.00 | 78 | 1014.0 |
| 20260906002617 | 25 | 258 | 0.0 | 6.4 | 0.00 | 0.00 | 0.00 | 77 | 1014.1 |
| 20260906002026 | 25 | 265 | 4.8 | 9.7 | 0.00 | 0.00 | 0.00 | 77 | 1014.3 |
| 20260906001635 | 25 | 263 | 3.2 | 9.7 | 0.00 | 0.00 | 0.00 | 76 | 1014.1 |
| 20260906001117 | 25 | 245 | 4.8 | 14.5 | 0.00 | 0.00 | 0.00 | 75 | 1014.1 |
| 20260906000518 | 25 | 257 | 4.8 | 14.5 | 0.00 | 0.00 | 0.00 | 73 | 1014.0 |
| 20260906000219 | 25 | 271 | 4.8 | 8.0 | 0.00 | 0.00 | 0.00 | 72 | 1013.9 |
| 20260905235637 | 25 | 267 | 3.2 | 8.0 | 0.00 | 0.00 | 0.00 | 72 | 1013.7 |
| 20260905235026 | 25 | 224 | 3.2 | 9.7 | 0.00 | 0.00 | 0.00 | 72 | 1013.7 |
| 20260905234752 | 25 | 265 | 3.2 | 9.7 | 0.00 | 0.00 | 0.00 | 72 | 1013.7 |
| 20260905234028 | 25 | 257 | 3.2 | 14.5 | 0.00 | 0.00 | 0.00 | 72 | 1014.0 |
| 20260905233542 | 25 | 265 | 6.4 | 14.5 | 0.00 | 0.00 | 0.00 | 71 | 1014.1 |
| 20260905233241 | 25 | 284 | 6.4 | 14.5 | 0.00 | 0.00 | 0.00 | 71 | 1014.2 |
| 20260905232525 | 26 | 281 | 6.4 | 14.5 | 0.00 | 0.00 | 0.00 | 71 | 1014.1 |
| 20260905232036 | 26 | 296 | 8.0 | 14.5 | 0.00 | 0.00 | 0.00 | 70 | 1014.4 |
| 20260905231718 | 26 | 299 | 6.4 | 24.1 | 0.00 | 0.00 | 0.00 | 69 | 1014.8 |
| 20260905231047 | 26 | 265 | 14.5 | 24.1 | 0.00 | 0.00 | 0.00 | 68 | 1015.0 |
| 20260905230524 | 26 | 284 | 17.7 | 25.7 | 0.00 | 0.00 | 0.00 | 66 | 1015.1 |
| 20260905230225 | 27 | 300 | 16.1 | 29.0 | 0.00 | 0.00 | 0.00 | 63 | 1015.3 |
| 20260905225615 | 27 | 283 | 17.7 | 29.0 | 0.00 | 0.00 | 0.00 | 62 | 1015.4 |
| 20260905225028 | 27 | 277 | 17.7 | 35.4 | 0.00 | 0.00 | 0.00 | 60 | 1015.4 |
| 20260905224647 | 28 | 262 | 20.9 | 40.2 | 0.00 | 0.00 | 0.00 | 57 | 1015.6 |
| 20260905224024 | 30 | 257 | 25.7 | 43.5 | 0.00 | 0.00 | 0.00 | 51 | 1015.1 |
| 20260905223529 | 32 | 213 | 8.0 | 32.2 | 0.00 | 0.00 | 0.00 | 47 | 1014.6 |
| 20260905223142 | 32 | 105 | 0.0 | 4.8 | 0.00 | 0.00 | 0.00 | 45 | 1014.4 |
| 20260905222637 | 33 | 105 | 1.6 | 9.7 | 0.00 | 0.00 | 0.00 | 43 | 1013.9 |
| 20260905222034 | 33 | 105 | 3.2 | 9.7 | 0.00 | 0.00 | 0.00 | 43 | 1013.9 |
| 20260905221738 | 33 | 98 | 3.2 | 9.7 | 0.00 | 0.00 | 0.00 | 42 | 1013.7 |
| 20260905221020 | 33 | 120 | 3.2 | 9.7 | 0.00 | 0.00 | 0.00 | 41 | 1013.5 |
| 20260905220524 | 33 | 119 | 4.8 | 12.9 | 0.00 | 0.00 | 0.00 | 41 | 1013.2 |
| 20260905220229 | 34 | 120 | 6.4 | 12.9 | 0.00 | 0.00 | 0.00 | 40 | 1013.6 |
| 20260905215529 | 34 | 134 | 6.4 | 17.7 | 0.00 | 0.00 | 0.00 | 40 | 1013.8 |
| 20260905215031 | 34 | 137 | 8.0 | 17.7 | 0.00 | 0.00 | 0.00 | 39 | 1014.0 |
| 20260905214657 | 35 | 138 | 4.8 | 11.3 | 0.00 | 0.00 | 0.00 | 39 | 1013.7 |
| 20260905214117 | 35 | 113 | 3.2 | 14.5 | 0.00 | 0.00 | 0.00 | 39 | 1013.8 |
| 20260905213533 | 35 | 94 | 3.2 | 19.3 | 0.00 | 0.00 | 0.00 | 38 | 1014.0 |
| 20260905213125 | 35 | 142 | 11.3 | 19.3 | 0.00 | 0.00 | 0.00 | 36 | 1013.7 |
| 20260905212537 | 36 | 119 | 4.8 | 17.7 | 0.00 | 0.00 | 0.00 | 36 | 1013.5 |
| 20260905212039 | 36 | 157 | 8.0 | 17.7 | 0.00 | 0.00 | 0.00 | 36 | 1013.6 |
| 20260905211628 | 36 | 111 | 3.2 | 17.7 | 0.00 | 0.00 | 0.00 | 36 | 1013.4 |
| 20260905211029 | 37 | 157 | 9.7 | 19.3 | 0.00 | 0.00 | 0.00 | 36 | 1013.5 |
| 20260905210529 | 37 | 120 | 8.0 | 19.3 | 0.00 | 0.00 | 0.00 | 36 | 1013.5 |
| 20260905210201 | 36 | 135 | 11.3 | 17.7 | 0.00 | 0.00 | 0.00 | 37 | 1013.8 |
| 20260905205534 | 36 | 98 | 8.0 | 16.1 | 0.00 | 0.00 | 0.00 | 38 | 1013.9 |
| 20260905205040 | 36 | 85 | 8.0 | 17.7 | 0.00 | 0.00 | 0.00 | 36 | 1014.0 |
| 20260905204714 | 36 | 129 | 9.7 | 17.7 | 0.00 | 0.00 | 0.00 | 36 | 1014.1 |
| 20260905204044 | 36 | 130 | 6.4 | 16.1 | 0.00 | 0.00 | 0.00 | 37 | 1014.2 |
| 20260905203544 | 36 | 169 | 6.4 | 22.5 | 0.00 | 0.00 | 0.00 | 37 | 1014.2 |
| 20260905203215 | 36 | 179 | 6.4 | 22.5 | 0.00 | 0.00 | 0.00 | 37 | 1014.2 |
| 20260905202631 | 36 | 178 | 9.7 | 20.9 | 0.00 | 0.00 | 0.00 | 38 | 1014.2 |
| 20260905202020 | 36 | 109 | 8.0 | 19.3 | 0.00 | 0.00 | 0.00 | 37 | 1014.1 |
| 20260905201737 | 36 | 109 | 8.0 | 19.3 | 0.00 | 0.00 | 0.00 | 37 | 1014.3 |
| 20260905201024 | 36 | 113 | 8.0 | 19.3 | 0.00 | 0.00 | 0.00 | 36 | 1014.4 |
| 20260905200524 | 37 | 151 | 11.3 | 19.3 | 0.00 | 0.00 | 0.00 | 36 | 1014.6 |
| 20260905200303 | 37 | 161 | 8.0 | 22.5 | 0.00 | 0.00 | 0.00 | 36 | 1014.4 |